Weather History for Medford, WI

Change the Weather History Date:

Sunday, June 16, 2013

  Actual Average Record
Temperature  
Mean Temperature 68 °F -  
Max Temperature 78 °F 71 °F 87 °F (2006)
Min Temperature 57 °F 50 °F 32 °F (1964)
Cooling Degree Days 2    
Growing Degree Days 18 (Base 50)    
Moisture  
Dew Point 56 °F    
Average Humidity 71    
Maximum Humidity 100    
Minimum Humidity 39    
Precipitation  
Precipitation 0.00 in - - ()
Sea Level Pressure  
Sea Level Pressure 29.88 in    
Wind  
Wind Speed 6 mph (West)    
Max Wind Speed 17 mph    
Max Gust Speed 24 mph    
Visibility 7 miles    
Events Fog , Rain    
Averages and records for this station are not official NWS values.
T = Trace of Precipitation, MM = Missing Value Source: NWS Daily Summary

Daily Weather History Graph

Daily Weather History Graph

Search for Another Location

Airport:

Trip Planner

Search our weather history database for the weather conditions in past years. The results will help you decide how hot, cold, wet, or windy it might be!

Date:

Astronomy

Jun. 16, 2013 Rise Set
Actual Time 5:13 AM CDT 8:50 PM CDT
Civil Twilight 4:35 AM CDT 9:28 PM CDT
Nautical Twilight 3:46 AM CDT 10:18 PM CDT
Astronomical Twilight 2:39 AM CDT 11:24 PM CDT
Moon 1:09 PM CDT (6/16) 12:37 AM CDT (6/16)
Length of Visible Light 16h 52m
Length of Day
15h 37m
Waxing Crescent, 50% of the Moon is Illuminated
Jun 16
Waxing Crescent
Jun 16
First Quarter
Jun 23
Full
Jun 29
Last Quarter
Jul 8
New

Hourly Weather History & Observations

Time (CDT) Temp. Dew Point Humidity Pressure Visibility Wind Dir Wind Speed Gust Speed Precip Events Conditions
12:15 AM 60.8 °F 59.0 °F 94% 29.88 in 4.0 mi West 5.8 mph - N/A   Overcast
12:35 AM 60.8 °F 57.2 °F 88% 29.88 in 3.0 mi West 3.5 mph - N/A   Scattered Clouds
12:55 AM 59.0 °F 57.2 °F 94% 29.88 in 2.5 mi Calm Calm - N/A   Clear
1:15 AM 57.2 °F 57.2 °F 100% 29.87 in 1.0 mi Calm Calm - N/A   Clear
1:35 AM 57.2 °F 57.2 °F 100% 29.87 in 2.0 mi West 3.5 mph - N/A   Clear
1:55 AM 59.0 °F 57.2 °F 94% 29.87 in 7.0 mi West 4.6 mph - N/A   Clear
2:15 AM 57.2 °F 57.2 °F 100% 29.86 in 7.0 mi West 4.6 mph - N/A   Clear
2:35 AM 57.2 °F 55.4 °F 94% 29.86 in 2.5 mi West 4.6 mph - N/A   Clear
2:55 AM 57.2 °F 55.4 °F 94% 29.86 in 0.8 mi West 4.6 mph - N/A   Mist
3:15 AM 57.2 °F 57.2 °F 100% 29.86 in 5.0 mi West 5.8 mph - N/A   Clear
3:35 AM 57.2 °F 55.4 °F 94% 29.85 in 0.5 mi West 5.8 mph - N/A Fog Fog
3:55 AM 57.2 °F 55.4 °F 94% 29.86 in 0.2 mi West 5.8 mph - N/A Fog Fog
4:15 AM 57.2 °F 55.4 °F 94% 29.85 in 0.2 mi West 5.8 mph - N/A Fog Fog
4:35 AM 57.2 °F 55.4 °F 94% 29.86 in 0.2 mi West 4.6 mph - N/A Fog Fog
4:55 AM 57.2 °F 55.4 °F 94% 29.87 in 0.2 mi West 5.8 mph - N/A Fog Fog
5:15 AM 57.2 °F 55.4 °F 94% 29.87 in 0.2 mi Calm Calm - N/A Fog Fog
5:35 AM 57.2 °F 55.4 °F 94% 29.88 in 0.2 mi West 4.6 mph - N/A Fog Fog
5:55 AM 57.2 °F 55.4 °F 94% 29.87 in 0.2 mi West 3.5 mph - N/A Fog Fog
6:15 AM 57.2 °F 55.4 °F 94% 29.87 in 0.2 mi Calm Calm - N/A Fog Fog
6:35 AM 57.2 °F 55.4 °F 94% 29.87 in 0.2 mi Calm Calm - N/A Fog Fog
6:55 AM 57.2 °F 57.2 °F 100% 29.88 in 1.8 mi West 3.5 mph - N/A   Mostly Cloudy
7:15 AM 59.0 °F 57.2 °F 94% 29.88 in 10.0 mi West 4.6 mph - N/A   Clear
7:35 AM 60.8 °F 57.2 °F 88% 29.89 in 10.0 mi West 4.6 mph - N/A   Clear
7:55 AM 60.8 °F 59.0 °F 94% 29.89 in 10.0 mi West 5.8 mph - N/A   Clear
8:15 AM 62.6 °F 60.8 °F 94% 29.89 in 10.0 mi West 6.9 mph - N/A   Clear
8:35 AM 64.4 °F 60.8 °F 88% 29.89 in 10.0 mi West 4.6 mph - N/A   Clear
8:55 AM 66.2 °F 60.8 °F 83% 29.89 in 10.0 mi West 4.6 mph - N/A   Clear
9:15 AM 68.0 °F 60.8 °F 78% 29.90 in 10.0 mi West 5.8 mph - N/A   Clear
9:35 AM 69.8 °F 60.8 °F 73% 29.89 in 10.0 mi West 6.9 mph - N/A   Clear
9:55 AM 69.8 °F 60.8 °F 73% 29.89 in 10.0 mi West 8.1 mph - N/A   Clear
10:15 AM 69.8 °F 60.8 °F 73% 29.89 in 10.0 mi West 8.1 mph - N/A   Clear
10:55 AM 73.4 °F 57.2 °F 57% 29.89 in 10.0 mi West 9.2 mph - N/A   Clear
11:35 AM 75.2 °F 57.2 °F 53% 29.90 in 10.0 mi WNW 11.5 mph - N/A   Clear
11:55 AM 75.2 °F 57.2 °F 53% 29.89 in 10.0 mi WNW 10.4 mph - N/A   Scattered Clouds
12:35 PM 75.2 °F 55.4 °F 50% 29.89 in 10.0 mi WNW 15.0 mph 23.0 mph N/A   Scattered Clouds
12:55 PM 75.2 °F 55.4 °F 50% 29.89 in 10.0 mi WNW 13.8 mph 20.7 mph N/A   Scattered Clouds
1:15 PM 77.0 °F 57.2 °F 50% 29.88 in 10.0 mi WNW 10.4 mph 20.7 mph N/A   Scattered Clouds
1:35 PM 77.0 °F 51.8 °F 41% 29.88 in 10.0 mi West 17.3 mph 21.9 mph N/A   Scattered Clouds
2:15 PM 77.0 °F 53.6 °F 44% 29.88 in 10.0 mi WSW 13.8 mph 20.7 mph N/A   Clear
2:35 PM 78.8 °F 55.4 °F 44% 29.88 in 10.0 mi West 15.0 mph 21.9 mph N/A   Scattered Clouds
2:55 PM 78.8 °F 53.6 °F 42% 29.88 in 10.0 mi West 13.8 mph 24.2 mph N/A   Scattered Clouds
3:15 PM 77.0 °F 53.6 °F 44% 29.89 in 10.0 mi West 13.8 mph 20.7 mph N/A   Scattered Clouds
3:35 PM 78.8 °F 53.6 °F 42% 29.89 in 10.0 mi WNW 11.5 mph - N/A   Scattered Clouds
3:55 PM 78.8 °F 51.8 °F 39% 29.88 in 10.0 mi West 16.1 mph 21.9 mph N/A   Scattered Clouds
4:15 PM 78.8 °F 51.8 °F 39% 29.88 in 10.0 mi West 11.5 mph 23.0 mph N/A   Clear
4:35 PM 78.8 °F 53.6 °F 42% 29.87 in 10.0 mi West 16.1 mph 20.7 mph N/A   Clear
4:55 PM 78.8 °F 53.6 °F 42% 29.87 in 10.0 mi West 12.7 mph - N/A   Clear
5:15 PM 78.8 °F 53.6 °F 42% 29.86 in 10.0 mi West 16.1 mph 23.0 mph N/A   Clear
5:35 PM 78.8 °F 53.6 °F 42% 29.86 in 10.0 mi WSW 13.8 mph 21.9 mph N/A   Clear
5:55 PM 78.8 °F 51.8 °F 39% 29.85 in 10.0 mi West 15.0 mph - N/A   Clear
6:15 PM 77.0 °F 53.6 °F 44% 29.86 in 10.0 mi West 12.7 mph - N/A   Clear
6:35 PM 77.0 °F 53.6 °F 44% 29.86 in 10.0 mi WSW 11.5 mph - N/A   Clear
6:55 PM 75.2 °F 55.4 °F 50% 29.87 in 10.0 mi WSW 8.1 mph - N/A   Clear
7:15 PM 75.2 °F 55.4 °F 50% 29.86 in 10.0 mi WSW 9.2 mph - N/A   Clear
7:35 PM 73.4 °F 57.2 °F 57% 29.86 in 10.0 mi SW 6.9 mph - N/A   Clear
7:55 PM 73.4 °F 57.2 °F 57% 29.86 in 10.0 mi SW 8.1 mph - N/A   Clear
8:15 PM 71.6 °F 57.2 °F 60% 29.86 in 10.0 mi SW 5.8 mph - N/A   Clear
8:55 PM 68.0 °F 55.4 °F 64% 29.88 in 10.0 mi NE 13.8 mph 21.9 mph N/A   Scattered Clouds
9:15 PM 66.2 °F 53.6 °F 64% 29.89 in 10.0 mi NE 9.2 mph 16.1 mph N/A   Scattered Clouds
9:35 PM 64.4 °F 51.8 °F 64% 29.88 in 10.0 mi East 5.8 mph - N/A   Clear
9:55 PM 62.6 °F 53.6 °F 72% 29.88 in 10.0 mi East 6.9 mph - N/A   Scattered Clouds
10:15 PM 62.6 °F 53.6 °F 72% 29.90 in 10.0 mi Calm Calm - N/A Rain Light Rain
10:35 PM 62.6 °F 53.6 °F 72% 29.88 in 10.0 mi SE 3.5 mph - N/A Rain Light Rain
10:55 PM 60.8 °F 53.6 °F 77% 29.89 in 10.0 mi East 3.5 mph - N/A   Scattered Clouds
11:15 PM 59.0 °F 53.6 °F 82% 29.89 in 10.0 mi Calm Calm - N/A   Scattered Clouds
11:35 PM 60.8 °F 53.6 °F 77% 29.90 in 10.0 mi ESE 6.9 mph - N/A   Clear
11:55 PM 57.2 °F 53.6 °F 88% 29.90 in 10.0 mi East 4.6 mph - N/A   Clear